Weather in Kosov

Ukraine / Ivano-Frankovsk District     48°19′15″N   25°05′33″E
temp.,
°C
wind,
m/s
gust,
m/s
humid.,
%
clouds,
%
prec.,
mm/h
press.,
hPa
HPBL,
m
21 january, fri
fri2123:00−4nw2782100 2.7 1012708
02:00−7w410692 2.8 1014460
05:00−8w397475 0.0 1015396
08:00−8w3107024 0.0 1016424
11:00−4wnw4125343 0.0 10161507
14:00−3wnw41154100 0.0 10151591
17:00−7wsw377274 0.0 1016334
20:00−8wsw4126863 0.0 1017526
22 january, sat
sat2223:00−9wsw368182 0.0 1017179
02:00−9wsw2582100 0.0 1017150
05:00−8wsw257962 0.0 1016241
08:00−11sw238739 0.0 101754
11:00−5wsw2658100 0.0 1016733
14:00−5w3768100 0.0 1016865
17:00−6nw2693100 1.4 1019572
20:00−6nnw3993100 2.7 10221199
23 january, sun
sun2323:00−7nw31090100 0.4 10231086
02:00−7wnw3986100 0.6 1023929
05:00−8wnw2894100 0.7 1023576
08:00−7n41094100 2.9 10241134
11:00−7nnw4990100 1.3 10261019
14:00−7nnw4889100 2.4 10271077
17:00−8n3894100 1.6 1029917
20:00−9nnw3795100 2.7 1031755
24 january, mon
mon2423:00−9n3696100 1.6 1033680
02:00−11nnw139798 2.4 1034168
05:00−13wnw1198100 0.3 103648
08:00−16wsw219756 0.4 103917
11:00−9wnw11805 0.0 1037313
14:00−7nne238198 0.0 1035538
17:00−12wnw1197100 0.0 103710
20:00−15wsw219615 0.0 103815
25 january, tue
tue2523:00−15sw22925 0.0 103819
02:00−14sw2287100 0.0 103624
05:00−14sw228688 0.0 103520
08:00−14sw2282100 0.0 103525
11:00−6sw1261100 0.0 1031129
14:00−2w1258100 0.0 1027367
17:00−5wsw2392100 0.1 1027120
20:00−6sw3494100 0.3 1027155